Beaver, WV

7:00 PM EST on February 23, 2017 (GMT -0500)
Raleigh County Memorial

Weather History for KBKW - December, 2012

Change the Weather History Date:

Friday, December 7, 2012

  Actual Average Record
Temperature  
Mean Temperature 52 °F 36 °F  
Max Temperature 60 °F 44 °F 74 °F (1951)
Min Temperature 43 °F 28 °F -1 °F (1977)
Degree Days  
Heating Degree Days 13 29  
Month to date heating degree days 99 194  
Since 1 July heating degree days 1353 1334  
Cooling Degree Days 0 0  
Month to date cooling degree days 0 0  
Year to date cooling degree days 761 557  
Growing Degree Days 2 (Base 50)    
Moisture  
Dew Point 42 °F    
Average Humidity 69    
Maximum Humidity 83    
Minimum Humidity 55    
Precipitation  
Precipitation T in 0.10 in 1.66 in (2011)
Month to date precipitation 0.10 0.69  
Year to date precipitation 41.28 38.88  
Snow  
Snow 0.00 in - - ()
Month to date snowfall 0.0  
Since 1 September snowfall 22.9  
Snow Depth 0.00 in    
Sea Level Pressure  
Sea Level Pressure 30.02 in    
Wind  
Wind Speed 7 mph (South)    
Max Wind Speed 16 mph    
Max Gust Speed 22 mph    
Visibility 10 miles    
Events      
T = Trace of Precipitation, MM = Missing Value Source: NWS Daily Summary

Daily Weather History Graph

Daily Weather History Graph

Search for Another Location

Airport or City:

Trip Planner

Search our weather history database for the weather conditions in past years. The results will help you decide how hot, cold, wet, or windy it might be!

Date:

Astronomy

Dec. 07, 2012 Rise Set
Actual Time 7:26 AM EST 5:05 PM EST
Civil Twilight 6:57 AM EST 5:34 PM EST
Nautical Twilight 6:25 AM EST 6:07 PM EST
Astronomical Twilight 5:53 AM EST 6:39 PM EST
Moon 12:50 AM EST (12/7) 12:56 PM EST (12/7)
Length of Visible Light 10h 36m
Length of Day
9h 38m
Last Quarter, 39% of the Moon is Illuminated
Dec 7
Last Quarter
Dec 13
New
Dec 20
First Quarter
Dec 28
Full
Jan 4
Last Quarter

Hourly Weather History & Observations

Time (EST) Temp. Windchill Dew Point Humidity Pressure Visibility Wind Dir Wind Speed Gust Speed Precip Events Conditions
12:51 AM 44.1 °F 39.0 °F 39.0 °F 82% 30.09 in 10.0 mi SE 9.2 mph - N/A   Overcast
1:51 AM 44.1 °F 39.0 °F 39.9 °F 85% 30.09 in 10.0 mi SE 9.2 mph - N/A   Overcast
2:51 AM 44.1 °F 42.5 °F 39.9 °F 85% 30.09 in 10.0 mi ESE 3.5 mph - 0.00 in   Overcast
3:51 AM 44.1 °F 40.1 °F 39.0 °F 82% 30.08 in 10.0 mi SE 6.9 mph - N/A   Overcast
4:51 AM 44.1 °F 40.8 °F 39.0 °F 82% 30.06 in 10.0 mi SE 5.8 mph - N/A   Overcast
5:51 AM 44.6 °F 40.7 °F 39.2 °F 81% 30.06 in 10.0 mi SE 6.9 mph - N/A   Mostly Cloudy
6:51 AM 44.1 °F 40.8 °F 39.0 °F 82% 30.09 in 10.0 mi SE 5.8 mph - N/A   Mostly Cloudy
7:51 AM 44.1 °F 41.5 °F 39.0 °F 82% 30.09 in 10.0 mi ESE 4.6 mph - N/A   Partly Cloudy
8:51 AM 46.9 °F - 39.9 °F 77% 30.09 in 10.0 mi SE 4.6 mph - N/A   Clear
9:51 AM 50.0 °F - 42.1 °F 74% 30.08 in 10.0 mi SE 4.6 mph - N/A   Scattered Clouds
10:51 AM 55.0 °F - 44.1 °F 67% 30.06 in 10.0 mi South 3.5 mph - N/A   Scattered Clouds
11:51 AM 57.9 °F - 46.0 °F 65% 30.03 in 10.0 mi SW 10.4 mph - N/A   Scattered Clouds
12:51 PM 59.0 °F - 46.0 °F 62% 30.00 in 10.0 mi WSW 13.8 mph 20.7 mph N/A   Partly Cloudy
1:51 PM 60.1 °F - 45.0 °F 57% 29.98 in 10.0 mi SW 9.2 mph 19.6 mph N/A   Overcast
2:51 PM 60.1 °F - 45.0 °F 57% 29.96 in 10.0 mi WSW 12.7 mph 19.6 mph N/A   Scattered Clouds
3:51 PM 59.0 °F - 45.0 °F 60% 29.95 in 10.0 mi SW 10.4 mph - N/A   Partly Cloudy
4:51 PM 57.9 °F - 44.1 °F 60% 29.96 in 10.0 mi SSW 6.9 mph - N/A   Scattered Clouds
5:51 PM 55.9 °F - 44.1 °F 64% 29.96 in 10.0 mi South 6.9 mph - N/A   Clear
6:51 PM 53.1 °F - 43.0 °F 69% 29.96 in 10.0 mi South 4.6 mph - N/A   Clear
7:51 PM 53.6 °F - 42.8 °F 67% 29.97 in 10.0 mi South 6.9 mph - N/A   Scattered Clouds
8:51 PM 53.1 °F - 43.0 °F 69% 29.97 in 10.0 mi South 4.6 mph - N/A   Mostly Cloudy
9:51 PM 53.1 °F - 43.0 °F 69% 29.95 in 10.0 mi SSW 5.8 mph - N/A   Partly Cloudy
10:51 PM 55.0 °F - 43.0 °F 64% 29.93 in 10.0 mi South 5.8 mph - N/A   Overcast
11:51 PM 55.0 °F - 43.0 °F 64% 29.92 in 10.0 mi SW 8.1 mph - N/A   Mostly Cloudy